Location: *
(49.1466°N, 1.6216°E)
Time: 18:10:26
(UTC+00:00)

USA 306 - Pass Details

Date: 25 September 2023
Orbit: 496 x 519 km, 54.0° (Epoch: 15 February)

Event Time Altitude Azimuth Distance (km) Brightness Sun altitude
Rises 18:50:06 0° 295° (WNW) 2,549 8.0 -11.3°
Reaches altitude 10° 18:52:17 10° 299° (WNW) 1,683 6.6 -11.6°
Maximum altitude 18:56:04 60° 20° (NNE) 573 2.8 -12.2°
Enters shadow 18:58:31 21° 95° (E) 1,173 3.9 -12.6°
